Location: Little Suamico
(44.7175°N, 88.0093°W)
Time: 07:06:42
(UTC+00:00)

X-37B - Pass Details

Date: 28 April 2021
Orbit: 386 x 389 km, 45.0° (Epoch: 08 May)

Event Time Altitude Azimuth Distance (km) Brightness Sun altitude
Exits shadow 09:22:06 27° 209° (SSW) 782 1.6 -13.9°
Maximum altitude 09:22:08 27° 208° (SSW) 782 1.6 -13.9°
Drops below altitude 10° 09:24:52 10° 148° (SSE) 1,408 3.4 -13.5°
Sets 09:27:06 0° 135° (SE) 2,258 4.6 -13.1°
